Regional Weather Roundup
Issued by NWS

Home | Current Version | Previous Version | Text Only | Print | Product List | Glossary On
Versions: 1 2 3 4 5 6 7 8 9 10 11 12 13 14 15 16 17 18 19 20 21 22 23 24 25 26 27 28 29 30 31 32 33 34 35 36 37 38 39 40 41 42 43 44 45 46 47 48 49 50
000
ASPQ40 PGUM 201510
RWRPQ
WEATHER ROUNDUP FOR THE MARIANAS AND MICRONESIA
NATIONAL WEATHER SERVICE TIYAN GU
100 AM CHST MON MAY 21 2018

GUZ001>004-201600-
MARIANA ISLANDS-

CITY           SKY/WX    TMP DP  RH WIND       PRES   REMARKS
GUAM AIRPORT   CLEAR     81  81 100 CALM      29.85F HX  91
ANDERSEN AFB   PTCLDY    79  79 100 E6        29.86S
ROTA AIRPORT   NOT AVBL
TINIAN AP      NOT AVBL
SAIPAN AP      MOCLDY    81  81 100 NE7       29.83F HX  91

$$

PMZ161-201600-
REPUBLIC OF PALAU-

CITY           SKY/WX    TMP DP  RH WIND       PRES   REMARKS
KOROR AP       MOCLDY    77  75  94 CALM      29.81F
KOROR WSO      MOCLDY    81  79  94 CALM      29.82F

$$

PMZ171>174-201600-
FEDERATED STATES OF MICRONESIA-

CITY           SKY/WX    TMP DP  RH WIND       PRES   REMARKS
YAP AIRPORT    NOT AVBL
CHUUK AP       NOT AVBL
POHNPEI AP     NOT AVBL
POHNPEI WSO    CLOUDY    77  73  88 W2        29.82S
KOSRAE AP      CLOUDY    81  77  89 SE6       29.80

$$

PMZ181-201600-
REPUBLIC OF THE MARSHALL ISLANDS-

CITY           SKY/WX    TMP DP  RH WIND       PRES   REMARKS
KWAJALEIN AP   PTCLDY    82  77  83 E15       29.83F HX  91
MAJURO AP      NOT AVBL
MAJURO WSO     MOCLDY    82  77  83 E9        29.79F HX  91

$$




USA.gov is the U.S. government's official web portal to all federal, state and local government web resources and services.